EHI
13 12 14 13 8 4 6 9 6 2 0 0 1 3 3 3 3 3 4 5 3 1 1 3 5 4 3 4 5 7 8 6 2 2 3 5 5 5 6 6 5 4 3
14 12 14 13 8 4 7 9 6 2 1 1 2 3 3 2 1 2 3 3 2 1 2 3 4 4 3 3 4 6 7 4 1 1 2 3 3 3 5 7 5 3 2
12 11 12 12 8 5 8 9 6 2 1 1 2 3 3 2 1 0 1 1 0 1 1 2 3 3 4 3 4 4 4 2 0 0 0 1 1 2 5 7 6 3 2
11 11 13 14 11 8 9 8 5 3 1 1 2 3 4 3 1 0 0 0 0 0 1 2 3 3 4 4 4 4 2 1 0 0 0 0 0 1 3 6 5 3 2
11 13 16 16 13 11 9 7 5 3 3 2 2 3 4 3 1 1 0 0 0 1 2 3 3 3 4 3 3 3 1 1 1 1 0 0 0 1 2 3 3 3 2
11 13 16 16 14 10 8 6 5 5 4 3 3 3 3 2 1 1 1 1 0 1 3 3 2 3 3 2 1 1 2 2 3 1 1 2 2 2 2 1 1 1 1
11 12 13 14 12 9 6 5 5 5 5 4 3 3 3 3 1 1 0 0 0 1 2 2 1 1 2 1 0 0 2 4 3 1 1 3 5 5 3 1 1 0 0
10 9 10 11 9 6 5 3 4 5 4 3 3 3 3 2 2 1 0 0 0 1 1 1 1 1 0 0 0 0 2 4 3 1 1 4 7 8 5 2 1 0 0
6 6 7 7 6 4 3 3 3 4 4 3 3 3 2 1 1 1 0 0 1 1 0 0 0 0 0 0 0 1 2 4 3 1 1 3 8 9 7 4 2 0 0
4 5 6 5 4 3 3 3 4 5 5 3 3 3 2 1 0 0 0 1 1 1 0 0 0 0 0 0 1 1 3 4 3 1 1 4 9 10 8 7 4 2 1
6 6 6 5 4 3 3 3 5 6 5 4 4 4 3 1 0 0 0 1 2 1 0 0 1 1 1 1 2 2 2 2 2 1 3 7 11 10 9 8 7 6 4
6 6 5 4 3 2 1 3 5 5 4 3 3 4 4 3 2 2 2 3 3 1 1 1 2 3 3 3 3 3 2 1 1 1 4 11 14 12 10 9 9 8 7
5 4 4 3 3 1 1 3 5 4 4 4 5 4 3 4 4 5 5 4 3 1 1 2 3 3 3 3 3 2 2 1 1 1 6 13 16 14 13 12 10 9 9
5 4 4 5 6 5 3 4 4 4 4 5 7 6 4 5 6 6 4 3 2 1 1 1 1 1 2 2 2 1 1 1 1 2 7 16 19 17 15 15 13 11 11
6 6 7 9 11 11 8 5 3 2 3 5 8 7 6 6 7 6 4 1 0 0 1 1 1 0 0 1 1 1 2 2 2 3 8 18 23 22 20 19 17 14 13
10 10 11 12 13 12 9 6 4 3 2 5 8 8 8 8 8 8 4 1 1 1 2 2 1 1 0 1 2 3 4 4 4 4 7 15 23 26 25 22 19 17 15
16 15 13 13 13 11 8 7 5 4 3 6 9 10 9 9 9 8 4 2 2 3 4 3 1 1 1 1 2 4 6 7 9 8 8 11 17 23 25 24 21 19 16
26 22 15 13 13 11 8 6 5 4 4 6 9 11 10 10 10 6 2 2 3 3 4 3 1 1 0 1 2 4 6 10 14 13 11 11 13 16 21 25 24 21 19
33 30 22 17 18 16 12 9 7 6 6 6 8 11 11 10 9 6 3 2 2 2 2 1 1 1 2 2 3 4 6 11 15 14 12 12 15 17 19 24 27 26 24
39 38 32 25 23 23 17 12 10 10 8 7 8 12 13 9 8 7 4 3 2 1 1 0 0 2 4 5 4 4 6 11 14 13 11 10 14 20 22 26 29 29 27
47 46 40 31 29 29 22 16 14 15 13 10 11 16 17 12 8 7 5 4 4 3 2 1 1 1 3 5 5 4 5 8 11 12 10 9 11 17 23 29 33 32 29
55 52 45 37 33 31 25 19 17 18 18 17 19 23 23 18 12 8 7 6 6 6 5 4 4 2 2 3 3 3 2 3 6 7 9 9 10 14 18 25 34 37 35
58 56 52 47 40 34 28 22 18 19 21 24 28 29 27 22 16 12 11 9 8 9 10 10 8 6 4 3 2 2 2 2 3 5 5 8 11 14 14 18 27 37 38
58 58 60 61 53 42 34 27 21 20 21 25 28 29 27 23 19 16 16 14 13 12 12 12 11 9 8 5 4 5 6 7 8 7 5 7 11 14 14 14 19 29 36
55 57 62 66 63 53 42 33 28 23 20 22 26 27 28 25 21 20 21 21 19 15 14 15 15 14 12 10 7 7 9 11 12 11 9 7 8 10 13 14 14 21 29
52 55 60 65 65 57 46 38 33 27 21 22 26 28 29 27 23 22 23 25 23 18 17 20 19 17 16 14 11 8 9 11 13 14 11 8 5 5 10 14 15 17 21
Wind_Speed
7 8 10 11 11 12 13 14 14 14 14 14 14 15 15 16 16 16 17 17 17 17 16 16 15 14 13 13 13 13 12 13 13 14 14 13 13 12 11 11 12 11 14
9 9 12 11 11 12 13 13 14 14 14 15 15 15 15 16 16 16 16 16 16 16 16 15 15 14 13 13 13 12 12 12 12 13 13 12 12 11 9 9 11 10 13
10 10 12 12 12 13 14 14 14 14 15 15 15 15 15 16 16 17 16 16 16 15 15 14 14 14 13 12 12 11 11 11 11 12 12 9 9 11 11 13 14 13 12
10 9 11 12 12 13 13 14 14 14 15 15 15 15 16 16 16 16 16 16 16 15 14 14 14 13 12 12 11 10 9 10 9 9 5 7 8 11 12 12 12 12 11
11 11 12 13 13 12 12 13 14 15 15 15 15 15 16 16 16 16 16 16 16 15 14 13 13 12 12 11 10 8 7 7 7 6 4 7 7 11 11 11 11 11 10
12 12 13 13 13 12 12 12 13 14 15 15 15 15 15 15 15 15 16 16 15 14 14 13 12 11 11 11 9 7 6 5 4 3 5 8 8 10 11 10 10 10 9
11 11 12 13 13 12 11 11 12 13 14 15 15 15 14 15 15 15 15 15 15 14 13 12 11 11 11 10 8 6 5 3 3 3 6 8 8 11 11 10 10 9 9
12 11 11 12 12 12 11 11 12 14 14 15 15 15 15 15 15 14 15 15 14 14 13 12 11 11 10 9 7 5 3 3 2 4 7 9 11 11 11 10 9 9 9
11 11 9 9 10 11 11 11 13 14 14 14 14 15 15 15 15 15 15 15 14 13 13 12 11 10 9 8 6 4 3 4 2 2 7 7 11 11 10 9 9 8 8
9 10 9 9 8 8 8 11 13 14 14 14 14 15 16 15 15 14 14 14 14 13 12 11 11 10 9 7 6 5 4 4 3 3 5 8 12 11 10 9 9 8 7
9 8 8 8 8 7 7 9 11 12 13 13 12 15 14 9 10 10 14 14 14 14 12 11 10 9 8 7 7 6 4 3 2 4 5 12 12 11 10 9 8 8 8
9 9 7 7 8 7 6 6 5 6 7 7 7 9 6 6 6 9 13 15 14 13 12 11 10 9 7 5 6 6 3 4 2 4 7 15 12 11 10 9 8 8 8
9 8 8 6 5 6 5 5 4 4 5 5 7 7 6 5 5 6 5 8 8 10 7 8 8 6 5 4 3 4 4 3 1 4 8 15 13 11 10 9 9 9 9
9 8 7 6 4 3 4 4 5 4 4 4 6 6 5 4 4 4 4 5 5 4 5 5 4 4 4 4 4 3 2 1 1 3 7 14 12 11 11 10 10 10 10
9 9 8 6 5 3 2 2 4 4 5 6 5 5 5 5 5 5 3 3 4 4 5 4 3 3 3 3 3 3 2 1 1 3 4 12 12 11 11 11 11 10 10
9 8 8 7 6 4 2 2 2 4 4 5 5 6 5 4 4 4 4 3 3 3 3 3 3 3 3 2 2 2 2 1 1 3 4 6 11 12 12 12 12 11 11
9 8 8 8 7 5 4 3 3 3 5 4 4 6 5 4 5 4 4 4 3 3 4 3 3 3 3 3 3 3 2 2 2 3 4 4 6 10 12 12 12 12 12
9 8 7 7 8 6 4 3 3 3 4 4 4 4 5 5 5 4 3 4 4 4 4 4 3 3 2 2 2 2 2 2 3 4 4 5 4 5 9 13 12 12 12
9 8 6 6 7 6 5 3 3 3 3 4 4 4 5 5 5 4 3 3 4 3 3 4 4 3 2 2 2 2 2 3 3 5 4 5 5 5 5 9 13 13 13
9 8 7 6 6 6 5 3 2 3 3 3 3 4 5 4 5 4 3 4 4 3 3 3 3 2 2 3 4 2 2 3 3 3 3 3 4 5 6 6 7 9 13
9 8 7 6 6 5 4 4 4 4 4 4 4 5 5 4 5 3 2 4 3 3 3 3 2 3 3 2 2 1 2 3 4 3 3 3 4 4 4 6 5 5 6
10 9 8 7 7 6 4 3 3 4 4 4 4 5 5 5 5 5 4 4 4 3 4 3 3 3 3 2 2 1 1 2 2 4 4 4 4 3 4 6 6 5 4
12 11 9 8 7 7 5 4 3 3 3 4 4 5 5 5 5 3 5 4 3 4 3 4 4 4 3 2 2 2 1 2 1 1 3 3 3 3 3 3 5 5 6
12 11 9 8 7 6 6 5 5 4 4 4 4 5 6 6 6 6 5 5 4 3 4 5 5 3 3 3 2 2 2 1 1 1 2 1 3 3 3 3 3 3 4
12 11 10 8 7 6 6 5 5 4 3 3 4 5 5 5 6 6 6 6 5 4 5 5 3 4 3 3 2 2 2 2 3 2 2 2 2 2 3 3 3 3 4
11 11 10 9 7 7 6 5 5 5 4 4 4 5 5 4 5 7 7 6 6 5 5 5 4 5 3 3 2 2 2 2 2 2 2 2 2 2 3 3 3 3 3
Wind_Direction
90 106 113 109 112 118 122 121 123 123 122 121 120 118 118 118 118 117 119 121 124 124 123 122 122 120 116 113 111 111 111 108 107 106 106 105 105 105 108 114 113 104 109
95 104 108 110 117 124 124 123 123 125 126 126 125 122 122 122 123 122 122 123 124 125 124 123 123 121 119 116 116 117 118 117 118 118 116 110 107 106 107 103 100 111 113
98 105 105 108 113 120 123 124 126 128 129 128 128 127 126 126 127 127 127 126 125 125 125 124 124 123 121 121 121 123 127 129 132 136 135 122 113 107 103 101 104 112 112
98 102 105 110 113 118 123 125 128 131 130 130 129 130 130 129 131 131 131 128 127 127 126 126 125 124 123 125 127 131 135 140 147 156 154 126 119 114 112 109 111 113 113
96 101 105 110 115 120 122 124 127 130 132 132 132 133 133 134 135 134 133 131 130 129 129 130 129 126 126 128 131 139 147 153 167 178 127 107 107 123 121 119 119 119 119
97 101 107 109 113 117 119 122 127 131 134 135 137 137 137 138 138 139 135 133 132 132 132 131 132 131 132 132 136 145 157 171 197 175 129 118 119 130 129 128 128 126 124
101 102 110 112 115 117 120 123 129 133 136 138 138 140 140 139 138 138 138 137 136 135 132 131 132 131 136 140 145 160 177 191 221 148 120 116 123 134 136 135 133 133 131
106 106 113 117 119 120 123 127 132 136 139 140 140 141 141 141 139 138 139 138 138 138 136 136 133 130 135 142 155 181 202 243 193 137 119 118 131 137 139 139 139 142 143
107 113 116 122 122 122 125 128 134 137 138 139 141 143 144 143 142 141 141 143 144 144 143 141 138 135 136 146 162 194 227 260 280 144 124 122 135 141 146 147 149 150 150
104 112 115 122 124 126 127 128 135 138 140 142 144 146 146 147 148 149 149 149 150 148 148 147 145 146 148 155 175 204 238 271 239 141 116 131 141 147 152 157 159 160 160
101 103 106 113 123 124 124 131 138 138 142 146 150 151 152 153 152 155 152 153 155 154 154 155 156 157 159 173 196 216 246 252 223 123 118 137 148 153 159 164 166 169 173
109 108 105 112 120 121 122 123 128 135 136 146 146 152 155 157 148 145 149 155 157 158 159 163 166 169 181 189 201 215 237 226 209 132 136 148 154 160 165 171 175 181 184
115 109 110 104 106 119 121 130 132 127 133 144 146 149 151 145 142 140 148 155 162 166 169 169 179 189 195 190 182 202 225 235 171 128 146 155 160 168 174 179 186 193 195
118 116 117 110 104 95 107 125 131 133 137 138 139 146 142 141 144 145 153 161 167 167 167 168 183 189 191 190 192 206 223 249 125 117 151 161 167 175 182 189 195 198 200
126 126 122 120 111 96 91 123 128 131 135 135 138 153 149 147 150 152 158 158 170 167 166 170 179 185 190 200 206 206 219 229 140 134 149 169 174 181 189 195 200 202 205
132 132 130 133 130 128 128 119 118 127 126 132 139 144 148 142 141 147 150 158 170 166 158 162 175 183 193 198 206 214 214 225 166 148 159 178 185 190 195 199 202 205 208
139 137 141 145 142 145 147 152 141 146 141 140 136 137 148 144 143 154 156 165 173 165 156 165 183 194 189 188 199 211 211 214 211 178 169 184 191 197 200 203 205 207 211
144 144 155 153 146 152 152 164 156 154 140 140 140 143 152 146 153 157 166 171 169 172 169 172 182 180 184 189 205 219 209 208 211 204 194 194 189 193 201 207 208 211 214
145 148 157 141 145 153 154 164 157 140 138 143 142 148 151 157 158 164 176 163 169 173 172 183 170 171 179 194 217 215 213 214 208 219 207 202 193 186 185 199 205 210 215
148 150 154 150 148 150 155 159 158 148 141 139 141 146 149 159 167 174 169 168 176 175 181 178 157 162 190 209 228 226 224 224 209 220 212 209 201 194 189 185 193 210 215
154 156 160 162 155 158 163 170 171 166 163 153 153 149 156 169 173 179 174 158 174 180 180 172 164 183 204 217 216 252 258 231 207 203 215 218 211 202 188 178 184 192 201
163 165 164 167 165 169 170 178 176 168 168 160 157 149 167 175 177 180 182 177 173 178 180 182 183 200 217 208 196 212 257 273 244 217 199 208 213 204 201 197 190 188 193
169 172 171 171 167 175 167 173 179 162 172 157 153 158 172 178 184 180 175 182 178 183 180 188 197 203 210 226 218 189 197 229 264 265 223 204 199 207 213 213 197 193 200
173 171 166 164 166 172 172 176 182 180 186 178 169 166 173 183 185 187 184 181 191 193 187 201 196 198 204 222 235 225 221 211 201 284 286 255 215 210 211 230 222 196 191
170 167 164 162 165 169 178 183 187 188 190 178 166 164 174 181 190 191 184 185 194 195 196 208 192 209 213 220 224 222 228 217 216 215 249 266 268 239 210 207 224 212 192
167 165 163 162 164 169 179 184 189 194 191 188 179 171 183 188 193 194 189 189 194 198 200 201 198 213 219 230 245 242 228 224 236 228 228 240 248 258 240 210 208 210 201